This is the latest recevied weather packets stored in our database for station/object KV9E. If no packets are shown the sender has not sent any weather packets the latest 10 day(s).
| Time | Temp. | Humidity | Pressure | Rain* | Wind** | Luminosity | Snow |
|---|---|---|---|---|---|---|---|
| 1787933644 | 25° C | 74% | 1019.3 hPa | 0 mm | - | 79 W/m² | - |
| 1787933339 | 25° C | 73% | 1019.1 hPa | 0 mm | - | 90 W/m² | - |
| 1787933034 | 24.44° C | 74% | 1019.3 hPa | 0 mm | - | 75 W/m² | - |
| 1787932732 | 25° C | 72% | 1019 hPa | 0 mm | - | 74 W/m² | - |
| 1787932427 | 25° C | 72% | 1019.2 hPa | 0 mm | - | 109 W/m² | - |
| 1787932122 | 25° C | 74% | 1019.1 hPa | 0 mm | - | 107 W/m² | - |
| 1787931821 | 25° C | 76% | 1019 hPa | 0 mm | - | 122 W/m² | - |
| 1787931520 | 24.44° C | 75% | 1019.1 hPa | 0 mm | - | 79 W/m² | - |
| 1787931215 | 24.44° C | 78% | 1019.2 hPa | 0 mm | - | 57 W/m² | - |
| 1787930914 | 24.44° C | 79% | 1019 hPa | 0 mm | - | 92 W/m² | - |
| 1787930613 | 24.44° C | 76% | 1019 hPa | 0 mm | - | 57 W/m² | - |
| 1787930309 | 24.44° C | 79% | 1018.9 hPa | 0 mm | - | 63 W/m² | - |
| 1787930004 | 23.89° C | 77% | 1018.9 hPa | 0 mm | - | 67 W/m² | - |
| 1787929702 | 23.89° C | 82% | 1019 hPa | 0 mm | - | 53 W/m² | - |
| 1787929398 | 23.89° C | 80% | 1019.2 hPa | 0 mm | - | 52 W/m² | - |
| 1787929095 | 23.89° C | 80% | 1018.9 hPa | 0 mm | - | 69 W/m² | - |
| 1787928791 | 23.89° C | 80% | 1018.9 hPa | 0 mm | - | 80 W/m² | - |
| 1787928489 | 23.33° C | 83% | 1019 hPa | 0 mm | - | 52 W/m² | - |
| 1787928183 | 23.33° C | 83% | 1018.9 hPa | 0 mm | - | 56 W/m² | - |
| 1787927883 | 23.33° C | 83% | 1018.9 hPa | 0 mm | - | 60 W/m² | - |
| 1787927577 | 22.78° C | 84% | 1019 hPa | 0 mm | - | 76 W/m² | - |
| 1787927272 | 22.22° C | 87% | 1019 hPa | 0 mm | - | 60 W/m² | - |
| 1787926967 | 21.67° C | 89% | 1019 hPa | 0 mm | - | 59 W/m² | - |
| 1787926662 | 21.67° C | 90% | 1018.8 hPa | 0 mm | - | 57 W/m² | - |
| 1787926360 | 21.67° C | 92% | 1018.9 hPa | 0 mm | - | 79 W/m² | - |
* Rain latest hour (hover to see other rain measurements)
** Current wind speed in m/s (hover to see current wind gust speed)